MSR92 FNLU-DGAA

Flight info

Callsign MSR92
Flight time 2h 48m
Altitude 40000
Route NATAR UA400 ULNAL/N0479F430 UA400 GAPAK UR983 EBUSO DCT SIPTA DCT EREKA EREKA1B
Aircraft A359/H-SDE2E3GHIJ3J4J5LM1ORWXY/LB1D1

Departure

Time 2026-04-28 09:15
Airport Quatro de Fevereiro International Airport (FNLU)

Arrival

Time 2026-04-28 12:03
Airport Kotoka International Airport (DGAA)
Time Latitude Longitude Altitude Speed Heading
2026-04-28 09:02 -8.84960 13.23573 251 ft 0 kts 300°
2026-04-28 09:12 -8.84955 13.23539 252 ft 9 kts 253°
2026-04-28 09:12 -8.85021 13.23529 251 ft 12 kts 162°
2026-04-28 09:13 -8.85107 13.23564 250 ft 15 kts 154°
2026-04-28 09:13 -8.85194 13.23631 251 ft 16 kts 138°
2026-04-28 09:13 -8.85276 13.23709 255 ft 16 kts 136°
2026-04-28 09:13 -8.85357 13.23782 258 ft 16 kts 145°
2026-04-28 09:14 -8.85435 13.23779 258 ft 13 kts 211°
2026-04-28 09:14 -8.85586 13.23622 259 ft 64 kts 226°
2026-04-28 09:14 -8.86071 13.23105 254 ft 136 kts 226°
2026-04-28 09:14 -8.86825 13.22273 548 ft 169 kts 225°
2026-04-28 09:15 -8.87391 13.21253 1326 ft 169 kts 255°
2026-04-28 09:15 -8.87330 13.20010 1806 ft 194 kts 297°
2026-04-28 09:15 -8.86267 13.19141 2306 ft 208 kts 347°
2026-04-28 09:15 -8.84842 13.18737 2888 ft 220 kts 336°
2026-04-28 09:16 -8.83494 13.17922 3550 ft 230 kts 326°
2026-04-28 09:16 -8.82132 13.16970 4103 ft 246 kts 326°
2026-04-28 09:16 -8.80663 13.15972 4635 ft 263 kts 327°
2026-04-28 09:16 -8.79110 13.14924 5334 ft 272 kts 327°
2026-04-28 09:17 -8.77516 13.13850 6116 ft 278 kts 328°
2026-04-28 09:17 -8.75888 13.12752 6887 ft 283 kts 328°
2026-04-28 09:17 -8.74255 13.11647 7704 ft 288 kts 328°
2026-04-28 09:17 -8.72576 13.10510 8577 ft 293 kts 328°
2026-04-28 09:18 -8.70868 13.09351 9480 ft 297 kts 329°
2026-04-28 09:18 -8.69142 13.08180 10350 ft 301 kts 328°
2026-04-28 09:18 -8.67398 13.06997 11228 ft 302 kts 328°
2026-04-28 09:18 -8.65648 13.05809 12155 ft 304 kts 327°
2026-04-28 09:19 -8.63883 13.04610 13053 ft 306 kts 327°
2026-04-28 09:19 -8.62106 13.03404 13954 ft 308 kts 327°
2026-04-28 09:19 -8.60323 13.02193 14758 ft 310 kts 326°
2026-04-28 09:19 -8.58531 13.00977 15556 ft 312 kts 326°
2026-04-28 09:20 -8.56711 12.99741 16273 ft 317 kts 326°
2026-04-28 09:20 -8.54876 12.98496 17102 ft 319 kts 326°
2026-04-28 09:20 -8.53026 12.97241 17875 ft 322 kts 326°
2026-04-28 09:20 -8.51148 12.95967 18569 ft 326 kts 326°
2026-04-28 09:21 -8.49255 12.94683 19181 ft 330 kts 326°
2026-04-28 09:21 -8.47334 12.93381 19818 ft 334 kts 326°
2026-04-28 09:21 -8.45377 12.92055 20303 ft 344 kts 326°
2026-04-28 09:21 -8.43347 12.90678 20590 ft 359 kts 326°
2026-04-28 09:22 -8.41255 12.89260 20873 ft 374 kts 326°
2026-04-28 09:22 -8.39058 12.87772 21183 ft 386 kts 326°
2026-04-28 09:22 -8.36807 12.86246 21632 ft 394 kts 326°
2026-04-28 09:22 -8.34511 12.84691 22084 ft 401 kts 326°
2026-04-28 09:23 -8.32178 12.83112 22600 ft 406 kts 326°
2026-04-28 09:23 -8.29817 12.81514 23130 ft 411 kts 326°
2026-04-28 09:23 -8.27436 12.79902 23636 ft 415 kts 326°
2026-04-28 09:23 -8.25025 12.78270 24084 ft 419 kts 325°
2026-04-28 09:24 -8.22592 12.76624 24572 ft 422 kts 326°
2026-04-28 09:24 -8.20151 12.74971 25137 ft 423 kts 326°
2026-04-28 09:24 -8.17689 12.73306 25681 ft 426 kts 326°
2026-04-28 09:24 -8.15214 12.71631 26189 ft 430 kts 325°
2026-04-28 09:25 -8.12729 12.69951 26743 ft 432 kts 325°
2026-04-28 09:25 -8.10217 12.68251 27287 ft 435 kts 324°
2026-04-28 09:25 -8.07725 12.66566 27795 ft 439 kts 325°
2026-04-28 09:25 -8.05177 12.64843 28302 ft 442 kts 325°
2026-04-28 09:26 -8.02615 12.63112 28809 ft 445 kts 325°
2026-04-28 09:26 -8.00031 12.61366 29297 ft 448 kts 325°
2026-04-28 09:26 -7.97429 12.59607 29815 ft 452 kts 325°
2026-04-28 09:26 -7.94810 12.57837 30241 ft 455 kts 325°
2026-04-28 09:27 -7.89522 12.54265 31060 ft 460 kts 326°
2026-04-28 09:27 -7.86849 12.52460 31470 ft 462 kts 326°
2026-04-28 09:27 -7.84174 12.50654 31913 ft 464 kts 326°
2026-04-28 09:28 -7.81488 12.48840 32332 ft 466 kts 326°
2026-04-28 09:28 -7.78790 12.47019 32772 ft 467 kts 326°
2026-04-28 09:28 -7.76078 12.45189 33132 ft 470 kts 326°
2026-04-28 09:28 -7.73351 12.43348 33455 ft 474 kts 326°
2026-04-28 09:29 -7.70602 12.41493 33847 ft 475 kts 327°
2026-04-28 09:29 -7.67848 12.39636 34148 ft 478 kts 327°
2026-04-28 09:29 -7.65071 12.37763 34383 ft 482 kts 327°
2026-04-28 09:29 -7.62308 12.35900 34726 ft 482 kts 327°
2026-04-28 09:30 -7.59537 12.34031 35247 ft 478 kts 327°
2026-04-28 09:30 -7.56774 12.32168 35690 ft 477 kts 327°
2026-04-28 09:30 -7.54025 12.30314 36133 ft 474 kts 327°
2026-04-28 09:30 -7.51283 12.28466 36564 ft 473 kts 327°
2026-04-28 09:31 -7.48555 12.26627 36988 ft 471 kts 327°
2026-04-28 09:31 -7.45844 12.24800 37415 ft 469 kts 328°
2026-04-28 09:31 -7.43130 12.22971 37842 ft 466 kts 328°
2026-04-28 09:31 -7.40448 12.21165 38318 ft 463 kts 328°
2026-04-28 09:32 -7.37783 12.19369 38773 ft 459 kts 328°
2026-04-28 09:32 -7.36020 12.18182 38966 ft 458 kts 328°
2026-04-28 09:32 -7.32475 12.15795 39288 ft 458 kts 328°
2026-04-28 09:32 -7.29822 12.14010 39526 ft 458 kts 328°
2026-04-28 09:33 -7.27172 12.12227 39768 ft 458 kts 328°
2026-04-28 09:33 -7.24523 12.10444 39935 ft 459 kts 328°
2026-04-28 09:33 -7.20113 12.07477 39961 ft 457 kts 328°
2026-04-28 09:34 -7.14038 12.03219 39963 ft 458 kts 327°
2026-04-28 09:34 -7.09682 12.00095 39963 ft 459 kts 327°
2026-04-28 09:35 -7.04509 11.96402 39961 ft 459 kts 327°
2026-04-28 09:35 -6.99274 11.92688 39963 ft 461 kts 327°
2026-04-28 09:36 -6.94030 11.88977 39961 ft 461 kts 327°
2026-04-28 09:36 -6.88787 11.85268 39960 ft 461 kts 327°
2026-04-28 09:37 -6.83547 11.81561 39963 ft 461 kts 327°
2026-04-28 09:37 -6.78299 11.77849 39963 ft 461 kts 327°
2026-04-28 09:38 -6.73057 11.74142 39960 ft 460 kts 327°
2026-04-28 09:38 -6.67812 11.70434 39960 ft 460 kts 327°
2026-04-28 09:39 -6.62564 11.66726 39961 ft 461 kts 327°
2026-04-28 09:39 -6.57311 11.63014 39960 ft 462 kts 327°
2026-04-28 09:40 -6.52078 11.59317 39960 ft 462 kts 327°
2026-04-28 09:40 -6.46820 11.55604 39960 ft 462 kts 327°
2026-04-28 09:41 -6.41560 11.51890 39960 ft 462 kts 327°
2026-04-28 09:41 -6.36294 11.48174 39961 ft 462 kts 327°
2026-04-28 09:42 -6.31026 11.44457 39960 ft 462 kts 327°
2026-04-28 09:42 -6.25754 11.40738 39960 ft 462 kts 327°
2026-04-28 09:43 -6.20491 11.37025 39956 ft 462 kts 327°
2026-04-28 09:43 -6.15217 11.33307 39958 ft 462 kts 327°
2026-04-28 09:44 -6.09985 11.29619 39960 ft 462 kts 327°
2026-04-28 09:44 -6.04732 11.25916 39957 ft 461 kts 327°
2026-04-28 09:45 -5.99481 11.22216 39960 ft 460 kts 327°
2026-04-28 09:45 -5.94234 11.18520 39959 ft 461 kts 326°
2026-04-28 09:46 -5.88978 11.14819 39958 ft 462 kts 326°
2026-04-28 09:46 -5.83709 11.11109 39957 ft 462 kts 326°
2026-04-28 09:47 -5.78444 11.07403 39958 ft 462 kts 326°
2026-04-28 09:47 -5.73184 11.03701 39958 ft 462 kts 326°
2026-04-28 09:48 -5.67913 10.99992 39955 ft 462 kts 326°
2026-04-28 09:48 -5.62681 10.96312 39955 ft 462 kts 326°
2026-04-28 09:49 -5.57412 10.92606 39959 ft 464 kts 327°
2026-04-28 09:49 -5.52100 10.88872 39959 ft 467 kts 327°
2026-04-28 09:50 -5.46768 10.85123 39961 ft 468 kts 327°
2026-04-28 09:50 -5.41435 10.81375 39960 ft 468 kts 327°
2026-04-28 09:51 -5.36110 10.77633 39959 ft 468 kts 327°
2026-04-28 09:51 -5.30772 10.73883 39956 ft 467 kts 327°
2026-04-28 09:52 -5.25490 10.70151 39958 ft 468 kts 326°
2026-04-28 09:52 -5.20152 10.66338 39958 ft 469 kts 326°
2026-04-28 09:53 -5.14863 10.62562 39961 ft 470 kts 327°
2026-04-28 09:53 -5.09532 10.58763 39961 ft 470 kts 327°
2026-04-28 09:54 -5.04200 10.54967 39960 ft 469 kts 326°
2026-04-28 09:54 -4.98889 10.51187 39961 ft 468 kts 326°
2026-04-28 09:55 -4.93576 10.47407 39957 ft 468 kts 326°
2026-04-28 09:55 -4.88395 10.43720 40006 ft 468 kts 326°
2026-04-28 09:56 -4.85795 10.41871 40180 ft 468 kts 326°
2026-04-28 09:56 -4.83142 10.39984 40465 ft 466 kts 327°
2026-04-28 09:56 -4.80497 10.38102 40717 ft 465 kts 327°
2026-04-28 09:56 -4.77858 10.36226 40932 ft 465 kts 327°
2026-04-28 09:57 -4.75253 10.34373 41144 ft 465 kts 327°
2026-04-28 09:57 -4.72609 10.32493 41346 ft 465 kts 327°
2026-04-28 09:57 -4.69975 10.30621 41554 ft 464 kts 327°
2026-04-28 09:57 -4.67339 10.28747 41744 ft 464 kts 327°
2026-04-28 09:58 -4.64707 10.26876 41938 ft 464 kts 327°
2026-04-28 09:58 -4.62074 10.25002 42138 ft 464 kts 327°
2026-04-28 09:58 -4.59441 10.23129 42302 ft 463 kts 327°
2026-04-28 09:58 -4.56813 10.21262 42472 ft 463 kts 327°
2026-04-28 09:59 -4.54183 10.19395 42639 ft 463 kts 327°
2026-04-28 09:59 -4.51550 10.17525 42747 ft 464 kts 327°
2026-04-28 09:59 -4.48916 10.15655 42893 ft 464 kts 327°
2026-04-28 09:59 -4.46281 10.13783 42957 ft 466 kts 327°
2026-04-28 10:00 -4.40959 10.10007 42959 ft 472 kts 327°
2026-04-28 10:00 -4.35601 10.06203 42979 ft 478 kts 327°
2026-04-28 10:01 -4.30167 10.02344 42960 ft 478 kts 327°
2026-04-28 10:01 -4.24741 9.98491 42960 ft 478 kts 327°
2026-04-28 10:02 -4.19308 9.94639 42958 ft 478 kts 327°
2026-04-28 10:02 -4.13869 9.90777 42958 ft 478 kts 327°
2026-04-28 10:03 -4.08445 9.86927 42960 ft 478 kts 327°
2026-04-28 10:03 -4.03017 9.83076 42982 ft 478 kts 327°
2026-04-28 10:04 -3.97631 9.79255 42961 ft 476 kts 327°
2026-04-28 10:04 -3.92211 9.75411 42960 ft 476 kts 327°
2026-04-28 10:05 -3.86812 9.71584 42960 ft 476 kts 327°
2026-04-28 10:05 -3.81409 9.67757 42963 ft 476 kts 327°
2026-04-28 10:06 -3.76006 9.63928 42958 ft 476 kts 327°
2026-04-28 10:06 -3.70602 9.60096 42975 ft 475 kts 327°
2026-04-28 10:07 -3.65204 9.56269 42959 ft 475 kts 327°
2026-04-28 10:07 -3.59842 9.52471 42957 ft 475 kts 327°
2026-04-28 10:08 -3.54447 9.48649 42978 ft 475 kts 327°
2026-04-28 10:08 -3.49053 9.44829 42959 ft 475 kts 327°
2026-04-28 10:09 -3.43656 9.41007 42958 ft 474 kts 327°
2026-04-28 10:09 -3.38276 9.37198 42953 ft 474 kts 327°
2026-04-28 10:10 -3.32865 9.33371 42972 ft 477 kts 327°
2026-04-28 10:10 -3.27433 9.29525 42976 ft 478 kts 327°
2026-04-28 10:11 -3.22009 9.25683 42973 ft 478 kts 327°
2026-04-28 10:11 -3.16573 9.21835 42955 ft 478 kts 327°
2026-04-28 10:12 -3.11178 9.18017 42954 ft 478 kts 327°
2026-04-28 10:12 -3.05744 9.14173 42954 ft 478 kts 327°
2026-04-28 10:13 -3.00311 9.10329 42975 ft 478 kts 327°
2026-04-28 10:13 -2.94872 9.06482 42976 ft 479 kts 327°
2026-04-28 10:14 -2.89406 9.02618 42972 ft 482 kts 327°
2026-04-28 10:14 -2.83927 8.98743 42952 ft 482 kts 327°
2026-04-28 10:15 -2.78477 8.94889 42954 ft 482 kts 327°
2026-04-28 10:15 -2.72999 8.91017 42975 ft 482 kts 327°
2026-04-28 10:16 -2.67518 8.87142 42973 ft 482 kts 327°
2026-04-28 10:16 -2.62037 8.83268 42960 ft 481 kts 327°
2026-04-28 10:17 -2.56578 8.79409 42959 ft 479 kts 327°
2026-04-28 10:17 -2.51138 8.75565 42957 ft 478 kts 327°
2026-04-28 10:18 -2.45700 8.71723 42951 ft 478 kts 327°
2026-04-28 10:18 -2.40252 8.67875 42973 ft 481 kts 327°
2026-04-28 10:19 -2.34777 8.64008 42975 ft 481 kts 327°
2026-04-28 10:19 -2.29347 8.60171 42954 ft 481 kts 327°
2026-04-28 10:20 -2.23876 8.56307 42963 ft 481 kts 328°
2026-04-28 10:20 -2.18417 8.52451 42963 ft 479 kts 328°
2026-04-28 10:21 -2.12976 8.48609 42960 ft 479 kts 328°
2026-04-28 10:21 -2.07528 8.44763 42960 ft 479 kts 327°
2026-04-28 10:22 -2.02079 8.40909 42973 ft 479 kts 328°
2026-04-28 10:22 -1.97549 8.37709 42948 ft 479 kts 328°
2026-04-28 10:23 -1.91217 8.33241 42958 ft 479 kts 328°
2026-04-28 10:23 -1.86661 8.30025 42958 ft 478 kts 328°
2026-04-28 10:24 -1.81233 8.26193 42958 ft 477 kts 328°
2026-04-28 10:24 -1.75811 8.22365 42978 ft 477 kts 328°
2026-04-28 10:25 -1.70427 8.18563 42958 ft 477 kts 328°
2026-04-28 10:25 -1.65001 8.14741 42956 ft 477 kts 328°
2026-04-28 10:26 -1.59571 8.10925 42974 ft 477 kts 328°
2026-04-28 10:26 -1.54144 8.07110 42955 ft 477 kts 328°
2026-04-28 10:27 -1.48719 8.03294 42953 ft 476 kts 328°
2026-04-28 10:27 -1.43308 7.99486 42951 ft 475 kts 328°
2026-04-28 10:28 -1.37889 7.95673 42964 ft 475 kts 328°
2026-04-28 10:29 -1.29781 7.89958 42946 ft 475 kts 327°
2026-04-28 10:29 -1.24417 7.86161 42947 ft 476 kts 327°
2026-04-28 10:30 -1.19022 7.82343 42961 ft 475 kts 327°
2026-04-28 10:30 -1.13620 7.78522 42962 ft 475 kts 327°
2026-04-28 10:31 -1.08212 7.74697 42952 ft 476 kts 328°
2026-04-28 10:31 -1.02800 7.70871 42963 ft 476 kts 328°
2026-04-28 10:32 -0.97387 7.67051 42953 ft 476 kts 328°
2026-04-28 10:32 -0.91978 7.63233 42951 ft 476 kts 328°
2026-04-28 10:33 -0.86558 7.59408 42956 ft 476 kts 328°
2026-04-28 10:33 -0.81160 7.55599 42959 ft 480 kts 328°
2026-04-28 10:34 -0.75650 7.51729 42953 ft 481 kts 328°
2026-04-28 10:34 -0.70212 7.47912 42958 ft 481 kts 328°
2026-04-28 10:35 -0.64736 7.44056 42957 ft 481 kts 328°
2026-04-28 10:35 -0.59266 7.40189 42957 ft 481 kts 328°
2026-04-28 10:36 -0.53799 7.36326 42955 ft 481 kts 328°
2026-04-28 10:36 -0.48322 7.32460 42955 ft 481 kts 328°
2026-04-28 10:37 -0.42860 7.28606 42957 ft 481 kts 328°
2026-04-28 10:37 -0.37428 7.24771 42958 ft 481 kts 328°
2026-04-28 10:38 -0.31951 7.20912 42955 ft 481 kts 328°
2026-04-28 10:38 -0.26486 7.17062 42955 ft 481 kts 328°
2026-04-28 10:39 -0.21017 7.13208 42955 ft 481 kts 328°
2026-04-28 10:39 -0.15547 7.09352 42955 ft 481 kts 328°
2026-04-28 10:40 -0.10069 7.05490 42957 ft 481 kts 328°
2026-04-28 10:40 -0.04599 7.01634 42957 ft 481 kts 328°
2026-04-28 10:41 0.00871 6.97778 42965 ft 481 kts 328°
2026-04-28 10:41 0.06316 6.93940 42948 ft 481 kts 328°
2026-04-28 10:42 0.11794 6.90078 42946 ft 481 kts 328°
2026-04-28 10:42 0.17271 6.86217 42944 ft 482 kts 328°
2026-04-28 10:43 0.22744 6.82359 42960 ft 481 kts 328°
2026-04-28 10:43 0.28217 6.78501 42935 ft 481 kts 328°
2026-04-28 10:44 0.33635 6.74641 42933 ft 482 kts 325°
2026-04-28 10:44 0.38321 6.69808 42935 ft 489 kts 307°
2026-04-28 10:45 0.41614 6.63828 42934 ft 494 kts 298°
2026-04-28 10:45 0.44507 6.57583 42955 ft 495 kts 296°
2026-04-28 10:46 0.47350 6.51320 42956 ft 495 kts 297°
2026-04-28 10:46 0.50232 6.45070 42958 ft 495 kts 297°
2026-04-28 10:47 0.53114 6.38874 42956 ft 495 kts 297°
2026-04-28 10:47 0.56019 6.32640 42955 ft 495 kts 297°
2026-04-28 10:48 0.58924 6.26402 42955 ft 495 kts 297°
2026-04-28 10:48 0.61830 6.20161 42952 ft 495 kts 297°
2026-04-28 10:49 0.64739 6.13910 42955 ft 495 kts 297°
2026-04-28 10:49 0.67638 6.07679 42957 ft 495 kts 297°
2026-04-28 10:50 0.70547 6.01429 42955 ft 495 kts 297°
2026-04-28 10:50 0.73435 5.95224 42956 ft 496 kts 297°
2026-04-28 10:51 0.76340 5.88980 42943 ft 495 kts 297°
2026-04-28 10:51 0.79250 5.82727 42952 ft 496 kts 297°
2026-04-28 10:52 0.82160 5.76472 42955 ft 496 kts 297°
2026-04-28 10:52 0.85073 5.70211 42959 ft 496 kts 297°
2026-04-28 10:53 0.87982 5.63957 42953 ft 496 kts 297°
2026-04-28 10:53 0.90889 5.57709 42953 ft 496 kts 297°
2026-04-28 10:54 0.94227 5.51731 42952 ft 490 kts 310°
2026-04-28 10:54 0.98957 5.46913 42951 ft 484 kts 322°
2026-04-28 10:55 1.04129 5.42667 42955 ft 484 kts 324°
2026-04-28 10:55 1.09409 5.38477 42955 ft 484 kts 324°
2026-04-28 10:56 1.14670 5.34280 42949 ft 484 kts 324°
2026-04-28 10:56 1.19930 5.30053 42954 ft 486 kts 324°
2026-04-28 10:57 1.25192 5.25810 42948 ft 486 kts 324°
2026-04-28 10:57 1.30455 5.21566 42949 ft 486 kts 324°
2026-04-28 10:58 1.35721 5.17320 42949 ft 486 kts 324°
2026-04-28 10:58 1.40945 5.13109 42950 ft 486 kts 324°
2026-04-28 10:59 1.46214 5.08862 42948 ft 486 kts 324°
2026-04-28 10:59 1.51478 5.04618 42950 ft 486 kts 324°
2026-04-28 11:00 1.56748 5.00370 42951 ft 487 kts 324°
2026-04-28 11:00 1.62019 4.96120 42950 ft 487 kts 324°
2026-04-28 11:01 1.67292 4.91868 42950 ft 486 kts 323°
2026-04-28 11:01 1.72549 4.87628 42947 ft 485 kts 323°
2026-04-28 11:02 1.77804 4.83390 42944 ft 485 kts 323°
2026-04-28 11:02 1.83053 4.79157 42947 ft 485 kts 323°
2026-04-28 11:03 1.88284 4.74938 42949 ft 485 kts 323°
2026-04-28 11:03 1.93540 4.70698 42947 ft 485 kts 323°
2026-04-28 11:04 1.98789 4.66464 42945 ft 485 kts 323°
2026-04-28 11:04 2.04044 4.62224 42944 ft 485 kts 323°
2026-04-28 11:05 2.09292 4.57989 42943 ft 485 kts 323°
2026-04-28 11:05 2.14547 4.53749 42957 ft 482 kts 323°
2026-04-28 11:06 2.19726 4.49569 42940 ft 481 kts 323°
2026-04-28 11:06 2.24935 4.45366 42939 ft 481 kts 323°
2026-04-28 11:07 2.30150 4.41157 42953 ft 481 kts 323°
2026-04-28 11:07 2.35363 4.36949 42945 ft 482 kts 323°
2026-04-28 11:08 2.40578 4.32739 42950 ft 482 kts 323°
2026-04-28 11:08 2.45799 4.28523 42952 ft 482 kts 323°
2026-04-28 11:09 2.51018 4.24309 42949 ft 482 kts 323°
2026-04-28 11:09 2.56203 4.20122 42931 ft 482 kts 323°
2026-04-28 11:10 2.60538 4.16620 42949 ft 480 kts 323°
2026-04-28 11:10 2.65728 4.12428 42949 ft 478 kts 323°
2026-04-28 11:11 2.70917 4.08237 42945 ft 480 kts 323°
2026-04-28 11:11 2.76112 4.04041 42947 ft 481 kts 323°
2026-04-28 11:12 2.81325 3.99828 42932 ft 481 kts 323°
2026-04-28 11:12 2.86529 3.95623 42931 ft 481 kts 323°
2026-04-28 11:13 2.91736 3.91414 42929 ft 481 kts 323°
2026-04-28 11:13 2.96907 3.87235 42930 ft 481 kts 323°
2026-04-28 11:14 3.02112 3.83028 42931 ft 481 kts 323°
2026-04-28 11:14 3.07316 3.78820 42943 ft 480 kts 322°
2026-04-28 11:15 3.12513 3.74619 42944 ft 480 kts 322°
2026-04-28 11:15 3.17710 3.70415 42940 ft 480 kts 322°
2026-04-28 11:16 3.22906 3.66212 42940 ft 480 kts 322°
2026-04-28 11:16 3.28097 3.62014 42942 ft 480 kts 322°
2026-04-28 11:17 3.33284 3.57817 42941 ft 480 kts 322°
2026-04-28 11:17 3.38476 3.53617 42935 ft 479 kts 322°
2026-04-28 11:18 3.43633 3.49443 42941 ft 479 kts 322°
2026-04-28 11:18 3.48817 3.45247 42941 ft 479 kts 322°
2026-04-28 11:19 3.54007 3.41046 42938 ft 479 kts 322°
2026-04-28 11:19 3.59196 3.36845 42939 ft 479 kts 322°
2026-04-28 11:20 3.64386 3.32643 42923 ft 479 kts 322°
2026-04-28 11:20 3.69573 3.28442 42939 ft 479 kts 322°
2026-04-28 11:21 3.74756 3.24243 42947 ft 479 kts 322°
2026-04-28 11:21 3.79938 3.20046 42942 ft 479 kts 322°
2026-04-28 11:22 3.85085 3.15877 42938 ft 479 kts 322°
2026-04-28 11:22 3.90268 3.11676 42931 ft 479 kts 322°
2026-04-28 11:23 3.95450 3.07475 42938 ft 479 kts 322°
2026-04-28 11:23 4.00627 3.03278 42937 ft 477 kts 322°
2026-04-28 11:24 4.05791 2.99114 42936 ft 475 kts 322°
2026-04-28 11:24 4.10939 2.94979 42932 ft 474 kts 322°
2026-04-28 11:25 4.16085 2.90843 42932 ft 474 kts 322°
2026-04-28 11:25 4.21234 2.86700 42935 ft 474 kts 322°
2026-04-28 11:26 4.26330 2.82596 42935 ft 472 kts 322°
2026-04-28 11:26 4.31449 2.78473 42932 ft 472 kts 322°
2026-04-28 11:27 4.36567 2.74351 42931 ft 472 kts 322°
2026-04-28 11:27 4.41687 2.70227 42929 ft 472 kts 322°
2026-04-28 11:28 4.46798 2.66109 42935 ft 471 kts 322°
2026-04-28 11:28 4.51897 2.62000 42934 ft 468 kts 322°
2026-04-28 11:29 4.56971 2.57910 42932 ft 468 kts 322°
2026-04-28 11:29 4.62034 2.53829 42933 ft 467 kts 322°
2026-04-28 11:30 4.67062 2.49775 42931 ft 467 kts 322°
2026-04-28 11:30 4.74649 2.43656 42932 ft 466 kts 322°
2026-04-28 11:31 4.79702 2.39580 42928 ft 466 kts 322°
2026-04-28 11:31 4.84767 2.35493 42930 ft 466 kts 322°
2026-04-28 11:32 4.89819 2.31416 42930 ft 466 kts 322°
2026-04-28 11:32 4.94875 2.27336 42926 ft 466 kts 322°
2026-04-28 11:33 4.99926 2.23258 42930 ft 468 kts 321°
2026-04-28 11:33 5.04974 2.19182 42929 ft 467 kts 321°
2026-04-28 11:34 5.10041 2.15091 42926 ft 467 kts 321°
2026-04-28 11:34 5.15105 2.10994 42924 ft 467 kts 321°
2026-04-28 11:35 5.20171 2.06895 42927 ft 468 kts 321°
2026-04-28 11:35 5.25230 2.02802 42930 ft 467 kts 321°
2026-04-28 11:36 5.30293 1.98706 42922 ft 466 kts 322°
2026-04-28 11:36 5.35345 1.94619 42925 ft 467 kts 321°
2026-04-28 11:37 5.40407 1.90522 42567 ft 466 kts 321°
2026-04-28 11:37 5.42899 1.88505 42287 ft 467 kts 321°
2026-04-28 11:37 5.45430 1.86456 42034 ft 468 kts 321°
2026-04-28 11:38 5.47959 1.84409 41465 ft 467 kts 321°
2026-04-28 11:38 5.50498 1.82352 40632 ft 471 kts 321°
2026-04-28 11:38 5.53070 1.80269 39705 ft 478 kts 320°
2026-04-28 11:38 5.55675 1.78157 38773 ft 485 kts 320°
2026-04-28 11:39 5.58306 1.76011 37939 ft 488 kts 320°
2026-04-28 11:39 5.60939 1.73858 37221 ft 488 kts 320°
2026-04-28 11:39 5.63570 1.71706 36521 ft 488 kts 320°
2026-04-28 11:39 5.66206 1.69551 35895 ft 487 kts 321°
2026-04-28 11:40 5.68828 1.67409 35374 ft 484 kts 321°
2026-04-28 11:40 5.71425 1.65288 34850 ft 481 kts 321°
2026-04-28 11:40 5.74019 1.63170 34323 ft 478 kts 321°
2026-04-28 11:40 5.76601 1.61063 33779 ft 476 kts 321°
2026-04-28 11:41 5.79161 1.58973 33228 ft 472 kts 321°
2026-04-28 11:41 5.81699 1.56902 32697 ft 469 kts 321°
2026-04-28 11:41 5.84220 1.54843 32182 ft 465 kts 321°
2026-04-28 11:41 5.86717 1.52804 31667 ft 462 kts 321°
2026-04-28 11:42 5.89196 1.50761 31151 ft 458 kts 320°
2026-04-28 11:42 5.91318 1.48389 30632 ft 456 kts 304°
2026-04-28 11:42 5.92712 1.45598 30122 ft 454 kts 288°
2026-04-28 11:42 5.93332 1.42500 29549 ft 451 kts 276°
2026-04-28 11:43 5.93620 1.39371 29017 ft 447 kts 275°
2026-04-28 11:43 5.93865 1.36268 28501 ft 443 kts 275°
2026-04-28 11:43 5.94110 1.33201 28005 ft 439 kts 275°
2026-04-28 11:43 5.94359 1.30151 27492 ft 436 kts 275°
2026-04-28 11:44 5.94608 1.27130 26990 ft 433 kts 275°
2026-04-28 11:44 5.94858 1.24124 26463 ft 430 kts 275°
2026-04-28 11:44 5.95108 1.21135 25953 ft 427 kts 275°
2026-04-28 11:44 5.95357 1.18160 25438 ft 425 kts 275°
2026-04-28 11:45 5.95604 1.15213 24909 ft 423 kts 275°
2026-04-28 11:45 5.95849 1.12281 24401 ft 420 kts 275°
2026-04-28 11:45 5.96091 1.09397 23890 ft 419 kts 275°
2026-04-28 11:45 5.96334 1.06493 23336 ft 417 kts 275°
2026-04-28 11:46 5.96576 1.03602 22786 ft 413 kts 275°
2026-04-28 11:46 5.96816 1.00744 22258 ft 409 kts 275°
2026-04-28 11:46 5.97053 0.97910 21752 ft 405 kts 275°
2026-04-28 11:46 5.97287 0.95107 21242 ft 401 kts 275°
2026-04-28 11:47 5.97519 0.92326 20736 ft 397 kts 275°
2026-04-28 11:47 5.97749 0.89572 20235 ft 394 kts 275°
2026-04-28 11:47 5.97977 0.86835 19748 ft 391 kts 275°
2026-04-28 11:47 5.98203 0.84122 19251 ft 389 kts 275°
2026-04-28 11:48 5.98428 0.81423 18771 ft 387 kts 275°
2026-04-28 11:48 5.98587 0.78732 18271 ft 385 kts 269°
2026-04-28 11:48 5.98325 0.76074 17758 ft 381 kts 261°
2026-04-28 11:48 5.97903 0.73452 17266 ft 378 kts 259°
2026-04-28 11:49 5.97468 0.70851 16806 ft 376 kts 259°
2026-04-28 11:49 5.97040 0.68272 16339 ft 373 kts 260°
2026-04-28 11:49 5.96622 0.65732 15881 ft 371 kts 260°
2026-04-28 11:49 5.96204 0.63174 15417 ft 370 kts 259°
2026-04-28 11:50 5.95789 0.60631 14959 ft 368 kts 259°
2026-04-28 11:50 5.95378 0.58109 14506 ft 366 kts 259°
2026-04-28 11:50 5.94968 0.55591 14053 ft 364 kts 259°
2026-04-28 11:50 5.94560 0.53087 13571 ft 363 kts 259°
2026-04-28 11:51 5.94155 0.50596 13106 ft 360 kts 259°
2026-04-28 11:51 5.93752 0.48127 12654 ft 357 kts 259°
2026-04-28 11:51 5.93353 0.45674 12204 ft 354 kts 259°
2026-04-28 11:51 5.92957 0.43241 11768 ft 352 kts 259°
2026-04-28 11:52 5.92563 0.40823 11330 ft 350 kts 259°
2026-04-28 11:52 5.92171 0.38419 10891 ft 348 kts 259°
2026-04-28 11:52 5.91781 0.36027 10459 ft 346 kts 259°
2026-04-28 11:52 5.91394 0.33656 10118 ft 340 kts 259°
2026-04-28 11:53 5.91020 0.31356 9984 ft 326 kts 259°
2026-04-28 11:53 5.90661 0.29153 9790 ft 316 kts 259°
2026-04-28 11:53 5.90302 0.26955 9406 ft 319 kts 259°
2026-04-28 11:53 5.89943 0.24765 9059 ft 317 kts 259°
2026-04-28 11:54 5.89586 0.22584 8827 ft 315 kts 259°
2026-04-28 11:54 5.89231 0.20422 8397 ft 313 kts 260°
2026-04-28 11:54 5.88879 0.18264 7931 ft 312 kts 260°
2026-04-28 11:54 5.88533 0.16146 7517 ft 309 kts 260°
2026-04-28 11:55 5.88188 0.14031 7161 ft 306 kts 260°
2026-04-28 11:55 5.87844 0.11928 6792 ft 304 kts 260°
2026-04-28 11:55 5.87502 0.09836 6406 ft 302 kts 260°
2026-04-28 11:55 5.87164 0.07770 6021 ft 298 kts 260°
2026-04-28 11:56 5.86941 0.06413 5775 ft 295 kts 261°
2026-04-28 11:56 5.86612 0.04401 5417 ft 290 kts 260°
2026-04-28 11:56 5.86289 0.02421 5055 ft 285 kts 261°
2026-04-28 11:56 5.85972 0.00471 4710 ft 280 kts 261°
2026-04-28 11:57 5.85658 -0.01443 4359 ft 275 kts 261°
2026-04-28 11:57 5.85349 -0.03331 4025 ft 274 kts 261°
2026-04-28 11:57 5.84957 -0.05191 3823 ft 272 kts 251°
2026-04-28 11:57 5.83976 -0.06792 3863 ft 270 kts 224°
2026-04-28 11:58 5.82472 -0.07807 3771 ft 256 kts 204°
2026-04-28 11:58 5.80841 -0.08419 3658 ft 241 kts 199°
2026-04-28 11:58 5.79326 -0.08955 3454 ft 223 kts 201°
2026-04-28 11:58 5.77935 -0.09514 3296 ft 207 kts 203°
2026-04-28 11:59 5.76664 -0.10044 3153 ft 189 kts 203°
2026-04-28 11:59 5.75490 -0.10531 3018 ft 178 kts 203°
2026-04-28 11:59 5.74362 -0.11002 2812 ft 173 kts 203°
2026-04-28 11:59 5.73266 -0.11456 2590 ft 168 kts 202°
2026-04-28 12:00 5.72216 -0.11889 2387 ft 163 kts 204°
2026-04-28 12:00 5.71159 -0.12327 2168 ft 162 kts 203°
2026-04-28 12:00 5.70134 -0.12751 1950 ft 161 kts 203°
2026-04-28 12:00 5.69100 -0.13179 1757 ft 161 kts 203°
2026-04-28 12:01 5.68065 -0.13607 1567 ft 158 kts 202°
2026-04-28 12:01 5.67061 -0.14022 1339 ft 152 kts 202°
2026-04-28 12:01 5.66108 -0.14415 1149 ft 144 kts 202°
2026-04-28 12:01 5.65214 -0.14785 982 ft 135 kts 202°
2026-04-28 12:02 5.64352 -0.15141 809 ft 133 kts 202°
2026-04-28 12:02 5.63530 -0.15481 649 ft 125 kts 202°
2026-04-28 12:02 5.62703 -0.15818 472 ft 129 kts 204°
2026-04-28 12:02 5.61892 -0.16164 298 ft 124 kts 202°
2026-04-28 12:03 5.61124 -0.16491 219 ft 115 kts 194°
2026-04-28 12:03 5.60514 -0.16724 224 ft 72 kts 202°
2026-04-28 12:03 5.60143 -0.16875 223 ft 33 kts 201°
2026-04-28 12:03 5.59950 -0.16961 219 ft 24 kts 215°
2026-04-28 12:04 5.59875 -0.17052 222 ft 17 kts 243°
2026-04-28 12:04 5.59835 -0.17148 218 ft 10 kts 247°
2026-04-28 12:04 5.59850 -0.17192 219 ft 5 kts 329°
2026-04-28 12:04 5.59891 -0.17181 220 ft 8 kts 21°
2026-04-28 12:05 5.59955 -0.17157 223 ft 10 kts 21°
2026-04-28 12:05 5.60029 -0.17159 225 ft 12 kts 327°
2026-04-28 12:05 5.60064 -0.17202 219 ft 0 kts 305°